TimeAST,TemperatureF,Dew PointF,Humidity,Sea Level PressureIn,VisibilityMPH,Wind Direction,Wind SpeedMPH,Gust SpeedMPH,PrecipitationIn,Events,Conditions,WindDirDegrees,DateUTC
12:00 AM,80.6,77.0,89,29.92,6.2,Calm,Calm,-,N/A,,Mostly Cloudy,0,2012-11-17 04:00:00
1:00 AM,78.8,77.0,94,29.92,-9999.0,North,-9999.0,-,N/A,,Scattered Clouds,0,2012-11-17 05:00:00
2:00 AM,78.8,75.2,89,29.89,6.2,Calm,Calm,-,N/A,,Scattered Clouds,0,2012-11-17 06:00:00
3:00 AM,78.8,77.0,94,29.89,6.2,Calm,Calm,-,N/A,,Scattered Clouds,0,2012-11-17 07:00:00
4:00 AM,78.8,77.0,94,29.89,6.2,Calm,Calm,-,N/A,,Mostly Cloudy,0,2012-11-17 08:00:00
5:00 AM,79,78,95,29.89,10,Calm,Calm,,,,Scattered Clouds,,2012-11-17 09:00:00
5:00 AM,78.8,77.0,94,29.89,6.2,Calm,Calm,-,N/A,,Mostly Cloudy,0,2012-11-17 09:00:00
6:00 AM,77.0,75.2,94,29.89,6.2,Calm,Calm,-,N/A,,Mostly Cloudy,0,2012-11-17 10:00:00
7:00 AM,77.0,77.0,100,29.92,5.0,Calm,Calm,-,N/A,,Mostly Cloudy,0,2012-11-17 11:00:00
8:00 AM,80.6,77.0,89,29.92,6.2,Calm,Calm,-,N/A,,Mostly Cloudy,0,2012-11-17 12:00:00
9:00 AM,82.4,77.0,84,29.95,6.2,ESE,5.8,-,N/A,,Mostly Cloudy,110,2012-11-17 13:00:00
10:00 AM,82.4,77.0,84,29.95,6.2,SE,5.8,-,N/A,,Scattered Clouds,130,2012-11-17 14:00:00
11:00 AM,84,77,74,29.97,10,SE,6.7,,,,Partly Cloudy,140,2012-11-17 15:00:00
11:00 AM,82.4,77.0,84,29.95,6.2,SE,5.8,-,N/A,,Scattered Clouds,140,2012-11-17 15:00:00
12:00 PM,84.2,77.0,79,29.95,6.2,SSE,6.9,-,N/A,,Scattered Clouds,150,2012-11-17 16:00:00
1:00 PM,86.0,77.0,74,29.92,6.2,SE,5.8,-,N/A,,Scattered Clouds,130,2012-11-17 17:00:00
2:00 PM,85,77,70,29.92,10,SSE,6.7,,,,Partly Cloudy,160,2012-11-17 18:00:00
2:00 PM,86.0,77.0,74,29.92,6.2,SSE,5.8,-,N/A,,Scattered Clouds,160,2012-11-17 18:00:00
3:00 PM,86.0,77.0,74,29.89,6.2,SSE,5.8,-,N/A,,Mostly Cloudy,150,2012-11-17 19:00:00
4:00 PM,84.2,77.0,79,29.89,6.2,East,5.8,-,N/A,,Scattered Clouds,90,2012-11-17 20:00:00
5:00 PM,83,77,78,29.91,10,SSW,11.2,,,,Partly Cloudy,200,2012-11-17 21:00:00
5:00 PM,82.4,77.0,84,29.89,6.2,SSW,5.8,-,N/A,,Mostly Cloudy,200,2012-11-17 21:00:00
6:00 PM,80.6,78.8,94,29.92,6.2,Calm,Calm,-,N/A,,Mostly Cloudy,0,2012-11-17 22:00:00
7:00 PM,77.0,77.0,100,29.92,6.2,Calm,Calm,-,N/A,,Scattered Clouds,0,2012-11-17 23:00:00
8:00 PM,77,76,98,29.94,10,Calm,Calm,,,,Scattered Clouds,,2012-11-18 00:00:00
8:00 PM,77.0,77.0,100,29.92,6.2,Calm,Calm,-,N/A,,Scattered Clouds,0,2012-11-18 00:00:00
9:00 PM,78.8,77.0,94,29.95,6.2,Calm,Calm,-,N/A,,Scattered Clouds,0,2012-11-18 01:00:00
10:00 PM,77.0,77.0,100,29.95,6.2,Calm,Calm,-,N/A,,Mostly Cloudy,0,2012-11-18 02:00:00
11:00 PM,77,76,95,29.96,10,Calm,Calm,,,Rain,Light Rain Showers,,2012-11-18 03:00:00
11:00 PM,77.0,75.2,94,29.95,6.2,Calm,Calm,-,N/A,,Scattered Clouds,0,2012-11-18 03:00:00